TimeCDT,TemperatureF,Dew PointF,Humidity,Sea Level PressureIn,VisibilityMPH,Wind Direction,Wind SpeedMPH,Gust SpeedMPH,PrecipitationIn,Events,Conditions,WindDirDegrees,DateUTC
12:53 AM,37.0,23.0,57,30.32,10.0,SSW,5.8,-,N/A,,Clear,200,2013-03-13 05:53:00
1:53 AM,35.1,23.0,61,30.31,10.0,SSW,3.5,-,N/A,,Clear,200,2013-03-13 06:53:00
2:53 AM,34.0,23.0,64,30.31,10.0,SSW,4.6,-,N/A,,Clear,200,2013-03-13 07:53:00
3:53 AM,30.9,23.0,72,30.30,10.0,SSW,4.6,-,N/A,,Clear,200,2013-03-13 08:53:00
4:53 AM,32.0,24.1,73,30.30,10.0,SSW,4.6,-,N/A,,Clear,200,2013-03-13 09:53:00
5:53 AM,33.1,25.0,72,30.29,10.0,SSW,8.1,-,N/A,,Clear,210,2013-03-13 10:53:00
6:53 AM,33.1,26.1,75,30.29,10.0,SSW,9.2,-,N/A,,Clear,210,2013-03-13 11:53:00
7:53 AM,34.0,27.0,75,30.29,10.0,SSW,8.1,-,N/A,,Clear,210,2013-03-13 12:53:00
8:53 AM,39.0,28.9,67,30.29,10.0,SSW,10.4,-,N/A,,Clear,210,2013-03-13 13:53:00
9:53 AM,46.9,30.0,52,30.29,10.0,SSW,19.6,27.6,N/A,,Clear,210,2013-03-13 14:53:00
10:53 AM,53.1,30.9,43,30.27,10.0,SSW,23.0,-,N/A,,Clear,200,2013-03-13 15:53:00
11:53 AM,57.0,30.0,36,30.25,10.0,SW,20.7,29.9,N/A,,Clear,220,2013-03-13 16:53:00
12:53 PM,61.0,28.9,30,30.24,10.0,SW,12.7,25.3,N/A,,Clear,220,2013-03-13 17:53:00
1:53 PM,64.9,28.9,26,30.20,10.0,South,12.7,20.7,N/A,,Clear,180,2013-03-13 18:53:00
2:53 PM,66.0,28.9,25,30.17,10.0,South,12.7,-,N/A,,Clear,180,2013-03-13 19:53:00
3:53 PM,68.0,28.0,22,30.15,10.0,SSW,10.4,17.3,N/A,,Clear,210,2013-03-13 20:53:00
4:53 PM,69.1,27.0,21,30.15,10.0,South,5.8,-,N/A,,Clear,190,2013-03-13 21:53:00
5:53 PM,68.0,26.1,21,30.15,10.0,SE,5.8,-,N/A,,Clear,140,2013-03-13 22:53:00
6:53 PM,66.0,26.1,22,30.15,10.0,South,8.1,-,N/A,,Clear,170,2013-03-13 23:53:00
7:53 PM,60.1,27.0,28,30.16,10.0,SSE,4.6,-,N/A,,Clear,160,2013-03-14 00:53:00
8:53 PM,55.9,28.9,36,30.17,10.0,South,5.8,-,N/A,,Clear,170,2013-03-14 01:53:00
9:53 PM,51.1,28.0,41,30.17,10.0,SSW,3.5,-,N/A,,Clear,200,2013-03-14 02:53:00
10:53 PM,45.0,28.0,52,30.18,10.0,SSW,5.8,-,N/A,,Clear,210,2013-03-14 03:53:00
11:53 PM,45.0,28.9,53,30.18,10.0,SSW,8.1,-,N/A,,Clear,200,2013-03-14 04:53:00